EA5AER-5 Weather Reports


time (UTC)temp
C
wind
direction
speed
KPH
gust
KPH
rain 1hr
cm
rain 24hr
cm
rain mn
cm
humidity
%
barometer
mb
20260508055703 14 253 3.2 4.8 0.00 2.44 0.03 83 1010.4
20260508053657 14 236 3.2 4.8 0.00 2.44 0.03 81 1009.9
20260508051844 14 236 3.2 4.8 0.00 2.44 0.03 81 1009.9
20260508045842 14 215 4.8 8.0 0.00 2.44 0.03 81 1009.8
20260508043839 14 243 3.2 4.8 0.00 2.44 0.03 80 1009.6
20260508041842 14 243 3.2 4.8 0.00 2.44 0.03 80 1009.6
20260508035816 14 207 3.2 4.8 0.00 2.44 0.03 81 1009.8
20260508033929 14 216 3.2 4.8 0.00 2.44 0.03 81 1009.8
20260508031751 14 236 1.6 4.8 0.00 2.44 0.03 82 1010.0
20260508025613 14 236 1.6 4.8 0.00 2.44 0.03 82 1010.0
20260508023648 14 217 3.2 8.0 0.03 2.44 0.03 82 1010.1
20260508021632 14 217 3.2 8.0 0.03 2.44 0.03 82 1010.1
20260508015554 14 217 3.2 8.0 0.03 2.44 0.03 82 1010.1
20260508013731 14 240 3.2 4.8 0.00 2.41 0.00 81 1010.7
20260508011809 13 253 3.2 4.8 0.00 2.41 0.00 86 1010.9
20260508005803 13 253 3.2 4.8 0.00 2.41 0.00 86 1010.9
20260508003729 13 253 3.2 4.8 0.00 2.41 0.00 86 1010.9
20260508001833 13 253 3.2 4.8 0.00 2.41 0.00 86 1010.9
20260508000003 13 253 3.2 4.8 0.00 2.41 0.00 86 1010.9
20260507233904 13 259 8.0 8.0 0.00 2.41 0.00 85 1010.9
20260507231853 13 256 4.8 8.0 0.00 2.41 0.00 86 1011.1
20260507225817 13 256 4.8 8.0 0.00 2.41 0.00 86 1011.1
20260507223753 13 224 3.2 9.7 0.00 2.41 2.41 88 1011.5
20260507221759 13 224 3.2 9.7 0.00 2.41 2.41 88 1011.5
20260507215744 13 224 3.2 9.7 0.00 2.41 2.41 88 1011.5
20260507213629 13 224 3.2 9.7 0.00 2.41 2.41 88 1011.5
20260507211608 13 207 4.8 11.3 0.03 2.41 2.41 89 1011.5
20260507205603 13 246 4.8 11.3 0.08 2.41 2.41 90 1011.2
20260507203630 15 155 0.0 1.6 0.38 2.34 2.34 85 1010.7
20260507201550 15 155 0.0 1.6 0.38 2.34 2.34 85 1010.7
20260507195724 15 155 0.0 1.6 0.38 2.34 2.34 85 1010.7
20260507193739 15 155 0.0 1.6 0.38 2.34 2.34 85 1010.7
20260507191804 13 148 16.1 22.5 1.42 1.88 1.88 85 1010.1
20260507185713 13 148 16.1 22.5 1.42 1.88 1.88 85 1010.1
20260507183724 13 148 16.1 22.5 1.42 1.88 1.88 85 1010.1
20260507181633 14 135 24.1 33.8 1.47 1.75 1.75 86 1009.8
20260507175733 17 17 9.7 16.1 0.23 0.25 0.25 85 1008.8
20260507173918 17 17 9.7 16.1 0.23 0.25 0.25 85 1008.8
20260507172034 17 17 9.7 16.1 0.23 0.25 0.25 85 1008.8
20260507165819 17 17 9.7 16.1 0.23 0.25 0.25 85 1008.8
20260507163903 18 21 14.5 20.9 0.00 0.03 0.03 76 1008.4
20260507161958 18 21 14.5 20.9 0.00 0.03 0.03 76 1008.4
20260507160008 18 8 8.0 14.5 0.00 0.03 0.03 76 1008.3
20260507154107 18 45 12.9 19.3 0.00 0.03 0.03 76 1008.2
20260507152048 18 32 8.0 16.1 0.00 0.03 0.03 76 1008.2
20260507145833 19 31 8.0 16.1 0.00 0.03 0.03 74 1008.4
20260507143833 19 16 9.7 19.3 0.00 0.03 0.03 73 1008.8
20260507141749 19 16 9.7 19.3 0.00 0.03 0.03 73 1008.8
20260507135754 19 16 9.7 19.3 0.00 0.03 0.03 73 1008.8
20260507133706 19 22 8.0 19.3 0.00 0.00 0.00 74 1009.9
20260507131842 19 22 8.0 19.3 0.00 0.00 0.00 74 1009.9
20260507125705 19 22 8.0 19.3 0.00 0.00 0.00 74 1009.9
20260507123619 19 22 8.0 19.3 0.00 0.00 0.00 74 1009.9
20260507121629 19 22 8.0 19.3 0.00 0.00 0.00 74 1009.9
20260507115803 19 22 8.0 19.3 0.00 0.00 0.00 74 1009.9
20260507113740 19 41 8.0 12.9 0.00 0.00 0.00 73 1010.2
20260507111735 19 52 6.4 12.9 0.00 0.00 0.00 74 1010.2
20260507105754 19 40 9.7 12.9 0.00 0.00 0.00 75 1010.3
20260507103913 19 40 9.7 12.9 0.00 0.00 0.00 75 1010.3
20260507101913 19 40 9.7 12.9 0.00 0.00 0.00 75 1010.3
20260507100037 19 33 6.4 14.5 0.00 0.00 0.00 73 1010.5
20260507093829 19 31 3.2 11.3 0.00 0.00 0.00 76 1010.6
20260507091627 18 11 8.0 11.3 0.00 0.00 0.00 76 1010.5
20260507085533 18 22 3.2 12.9 0.00 0.00 0.00 75 1010.6
20260507083543 18 334 6.4 12.9 0.00 0.00 0.00 75 1010.2
20260507081534 17 312 6.4 11.3 0.00 0.00 0.00 75 1010.2
20260507075609 17 312 6.4 11.3 0.00 0.00 0.00 75 1010.2
20260507073639 17 267 6.4 9.7 0.00 0.00 0.00 75 1010.1
20260507071527 17 267 6.4 9.7 0.00 0.00 0.00 75 1010.1
20260507065524 16 208 8.0 9.7 0.00 0.00 0.00 79 1010.2
20260507063533 16 208 8.0 9.7 0.00 0.00 0.00 79 1010.2
20260507061709 15 263 6.4 9.7 0.00 0.00 0.00 78 1010.0